BAW287 EGLL-KSFO

Flight info

Callsign BAW287
Flight time N/A
Altitude 34000
Route ULTIB T420 TNT UL28 RODOL UM65 TENSO L603 BELOX DCT GOMUP/M083F340 DCT 60N020W 65N030W/M084F360 68N040W 69N050W 69N060W DCT BOPUT/N0487F360 DCT 68N070W 67N080W 65N089W 62N100W/N0475F380 58N110W DCT YEZ DCT WELLF DCT ONSET DCT BRUKK DCT RBL/N0466F390 DCT MRRLO BDEGA4
Aircraft A388/J-SADE2E3FGHIJ3J4J5M1RWXY/LB1D1

Departure

Time 2026-04-30 12:35
Airport London Heathrow Airport (EGLL)

Arrival

Time N/A
Airport San Francisco International Airport (KSFO)
Time Latitude Longitude Altitude Speed Heading
2026-04-30 12:10 51.46982 -0.47485 95 ft 0 kts 269°
2026-04-30 12:24 51.46981 -0.47494 91 ft 0 kts 269°
2026-04-30 12:26 51.46981 -0.47475 91 ft 3 kts 269°
2026-04-30 12:26 51.46982 -0.47444 96 ft 3 kts 269°
2026-04-30 12:27 51.46982 -0.47406 112 ft 3 kts 269°
2026-04-30 12:27 51.46984 -0.47369 92 ft 5 kts 249°
2026-04-30 12:27 51.47009 -0.47352 93 ft 0 kts 178°
2026-04-30 12:30 51.46999 -0.47351 94 ft 5 kts 178°
2026-04-30 12:30 51.46948 -0.47350 91 ft 8 kts 179°
2026-04-30 12:30 51.46888 -0.47349 94 ft 9 kts 180°
2026-04-30 12:30 51.46822 -0.47348 93 ft 10 kts 179°
2026-04-30 12:31 51.46776 -0.47355 92 ft 4 kts 217°
2026-04-30 12:31 51.46749 -0.47442 94 ft 15 kts 260°
2026-04-30 12:31 51.46745 -0.47657 94 ft 21 kts 269°
2026-04-30 12:31 51.46742 -0.47910 91 ft 24 kts 268°
2026-04-30 12:32 51.46738 -0.48187 91 ft 26 kts 271°
2026-04-30 12:32 51.46741 -0.48485 91 ft 25 kts 269°
2026-04-30 12:32 51.46740 -0.48711 91 ft 10 kts 254°
2026-04-30 12:32 51.46707 -0.48746 94 ft 6 kts 199°
2026-04-30 12:33 51.46665 -0.48755 95 ft 6 kts 181°
2026-04-30 12:33 51.46615 -0.48768 95 ft 9 kts 194°
2026-04-30 12:33 51.46531 -0.48778 94 ft 14 kts 161°
2026-04-30 12:33 51.46479 -0.48674 94 ft 13 kts 97°
2026-04-30 12:34 51.46480 -0.48351 92 ft 61 kts 89°
2026-04-30 12:34 51.46482 -0.47317 94 ft 121 kts 90°
2026-04-30 12:34 51.46493 -0.45742 103 ft 158 kts 89°
2026-04-30 12:34 51.46510 -0.43954 492 ft 160 kts 88°
2026-04-30 12:35 51.46551 -0.42114 944 ft 167 kts 90°
2026-04-30 12:35 51.46889 -0.40399 1598 ft 159 kts 63°
2026-04-30 12:35 51.47557 -0.38946 2076 ft 167 kts 57°
2026-04-30 12:35 51.48301 -0.37502 2534 ft 169 kts 56°
2026-04-30 12:36 51.49072 -0.36022 2949 ft 175 kts 56°
2026-04-30 12:36 51.49860 -0.34511 3352 ft 181 kts 55°
2026-04-30 12:36 51.50978 -0.33343 3491 ft 207 kts 25°
2026-04-30 12:36 51.52443 -0.32723 3593 ft 223 kts 18°
2026-04-30 12:37 51.53991 -0.32239 3685 ft 236 kts 16°
2026-04-30 12:37 51.55684 -0.31702 3870 ft 258 kts 17°
2026-04-30 12:37 51.57510 -0.31072 4138 ft 276 kts 18°
2026-04-30 12:37 51.59410 -0.30377 4691 ft 284 kts 18°
2026-04-30 12:38 51.61343 -0.29648 5489 ft 286 kts 18°
2026-04-30 12:38 51.63302 -0.28898 6005 ft 292 kts 18°
2026-04-30 12:38 51.65312 -0.28313 6120 ft 299 kts
2026-04-30 12:38 51.67350 -0.29031 6607 ft 304 kts 334°
2026-04-30 12:39 51.69163 -0.30743 7384 ft 301 kts 328°
2026-04-30 12:39 51.70948 -0.32537 8008 ft 305 kts 329°
2026-04-30 12:39 51.72739 -0.34324 8641 ft 308 kts 329°
2026-04-30 12:39 51.74603 -0.36156 9293 ft 311 kts 330°
2026-04-30 12:40 51.76465 -0.37970 9946 ft 314 kts 330°
2026-04-30 12:40 51.78324 -0.39772 10454 ft 318 kts 330°
2026-04-30 12:40 51.80273 -0.41656 10651 ft 336 kts 330°
2026-04-30 12:40 51.82327 -0.43645 10801 ft 352 kts 330°
2026-04-30 12:41 51.84469 -0.45721 11006 ft 365 kts 330°
2026-04-30 12:41 51.86660 -0.47847 11342 ft 369 kts 330°
2026-04-30 12:41 51.88870 -0.49995 11747 ft 371 kts 330°
2026-04-30 12:41 51.91081 -0.52148 12350 ft 372 kts 330°
2026-04-30 12:42 51.93309 -0.54323 12865 ft 375 kts 330°
2026-04-30 12:42 51.95555 -0.56517 13409 ft 378 kts 330°
2026-04-30 12:42 51.97816 -0.58726 13887 ft 382 kts 330°
2026-04-30 12:42 52.00100 -0.60959 14421 ft 383 kts 330°
2026-04-30 12:43 52.02362 -0.63173 14852 ft 386 kts 329°
2026-04-30 12:43 52.04665 -0.65431 15368 ft 388 kts 329°
2026-04-30 12:43 52.06985 -0.67709 15823 ft 391 kts 329°
2026-04-30 12:43 52.09317 -0.70001 16276 ft 394 kts 329°
2026-04-30 12:44 52.11676 -0.72324 16733 ft 396 kts 329°
2026-04-30 12:44 52.14038 -0.74652 17189 ft 399 kts 329°
2026-04-30 12:44 52.16415 -0.76998 17641 ft 401 kts 328°
2026-04-30 12:44 52.18805 -0.79359 18102 ft 403 kts 328°
2026-04-30 12:45 52.21215 -0.81743 18533 ft 406 kts 328°
2026-04-30 12:45 52.23638 -0.84141 18899 ft 408 kts 328°
2026-04-30 12:45 52.26076 -0.86560 19284 ft 410 kts 328°
2026-04-30 12:45 52.28486 -0.88954 19636 ft 413 kts 328°
2026-04-30 12:46 52.30939 -0.91392 20039 ft 414 kts 328°
2026-04-30 12:46 52.33409 -0.93851 20415 ft 417 kts 328°
2026-04-30 12:46 52.35888 -0.96323 20771 ft 419 kts 328°
2026-04-30 12:46 52.38389 -0.98819 21133 ft 421 kts 329°
2026-04-30 12:47 52.40898 -1.01326 21370 ft 427 kts 328°
2026-04-30 12:47 52.43445 -1.03876 21662 ft 430 kts 328°
2026-04-30 12:47 52.46000 -1.06438 22020 ft 431 kts 329°
2026-04-30 12:47 52.48563 -1.09012 22364 ft 434 kts 329°
2026-04-30 12:48 52.51112 -1.11573 22706 ft 436 kts 329°
2026-04-30 12:48 52.53704 -1.14182 23037 ft 438 kts 329°
2026-04-30 12:48 52.56298 -1.16796 23374 ft 440 kts 329°
2026-04-30 12:48 52.58917 -1.19437 23703 ft 442 kts 329°
2026-04-30 12:49 52.61547 -1.22093 23971 ft 444 kts 329°
2026-04-30 12:49 52.64181 -1.24756 24250 ft 446 kts 329°
2026-04-30 12:49 52.66832 -1.27441 24528 ft 448 kts 328°
2026-04-30 12:49 52.69494 -1.30142 24822 ft 450 kts 328°
2026-04-30 12:50 52.72172 -1.32864 25114 ft 452 kts 328°
2026-04-30 12:50 52.74854 -1.35595 25578 ft 455 kts 328°
2026-04-30 12:50 52.77547 -1.38343 25909 ft 456 kts 328°
2026-04-30 12:50 52.80212 -1.41067 26242 ft 457 kts 328°
2026-04-30 12:51 52.82923 -1.43840 26543 ft 460 kts 328°
2026-04-30 12:51 52.85649 -1.46633 26876 ft 462 kts 328°
2026-04-30 12:51 52.88388 -1.49443 27187 ft 465 kts 328°
2026-04-30 12:51 52.91142 -1.52272 27532 ft 467 kts 328°
2026-04-30 12:52 52.93919 -1.55131 27733 ft 473 kts 328°
2026-04-30 12:52 52.96721 -1.58019 28091 ft 475 kts 328°
2026-04-30 12:52 52.99532 -1.60920 28444 ft 477 kts 328°
2026-04-30 12:52 53.02319 -1.63800 28801 ft 479 kts 327°
2026-04-30 12:53 53.05153 -1.66733 29133 ft 482 kts 327°
2026-04-30 12:53 53.08007 -1.69693 29452 ft 484 kts 327°
2026-04-30 12:53 53.10865 -1.72666 29794 ft 487 kts 327°
2026-04-30 12:53 53.13749 -1.75669 30138 ft 490 kts 327°
2026-04-30 12:54 53.16648 -1.78693 30458 ft 492 kts 327°
2026-04-30 12:54 53.19557 -1.81733 30787 ft 494 kts 327°
2026-04-30 12:54 53.22469 -1.84780 31094 ft 496 kts 327°
2026-04-30 12:54 53.25410 -1.87838 31401 ft 498 kts 328°
2026-04-30 12:55 53.28377 -1.90689 31694 ft 500 kts 330°
2026-04-30 12:55 53.31428 -1.93515 31994 ft 502 kts 330°
2026-04-30 12:55 53.34485 -1.96351 32291 ft 504 kts 330°
2026-04-30 12:55 53.37558 -1.99232 32580 ft 506 kts 330°
2026-04-30 12:56 53.40628 -2.02136 32880 ft 508 kts 330°
2026-04-30 12:56 53.43704 -2.05064 33189 ft 510 kts 330°
2026-04-30 12:56 53.46795 -2.08015 33467 ft 513 kts 330°
2026-04-30 12:56 53.49902 -2.10988 33717 ft 515 kts 330°
2026-04-30 12:57 53.53012 -2.13969 34028 ft 517 kts 330°
2026-04-30 12:57 53.56104 -2.16990 34231 ft 520 kts 326°
2026-04-30 12:57 53.58969 -2.20731 34243 ft 526 kts 314°
2026-04-30 12:57 53.61409 -2.25349 34238 ft 528 kts 303°
2026-04-30 12:58 53.63284 -2.30573 34231 ft 517 kts 291°
2026-04-30 12:58 53.64547 -2.36204 34234 ft 513 kts 282°
2026-04-30 12:58 53.66518 -2.47773 34229 ft 514 kts 284°
2026-04-30 12:59 53.68870 -2.59189 34223 ft 516 kts 287°
2026-04-30 12:59 53.71422 -2.70566 34237 ft 525 kts 287°
2026-04-30 13:00 53.74028 -2.82108 34258 ft 528 kts 287°
2026-04-30 13:00 53.76625 -2.93695 34210 ft 523 kts 287°
2026-04-30 13:01 53.79181 -3.05169 34211 ft 521 kts 286°
2026-04-30 13:01 53.81721 -3.16657 34218 ft 521 kts 286°
2026-04-30 13:02 53.84233 -3.28067 34209 ft 517 kts 286°
2026-04-30 13:02 53.86718 -3.39424 34203 ft 518 kts 286°
2026-04-30 13:03 53.89969 -3.50372 34204 ft 526 kts 302°
2026-04-30 13:03 53.94735 -3.59857 34185 ft 530 kts 310°
2026-04-30 13:04 53.99711 -3.69075 34228 ft 529 kts 310°
2026-04-30 13:04 54.04634 -3.78208 34237 ft 527 kts 310°
2026-04-30 13:05 54.09576 -3.87387 34220 ft 525 kts 310°
2026-04-30 13:06 54.16945 -4.01151 34200 ft 523 kts 309°
2026-04-30 13:06 54.21825 -4.10314 34210 ft 521 kts 309°
2026-04-30 13:07 54.26656 -4.19418 34200 ft 520 kts 309°
2026-04-30 13:07 54.31502 -4.28588 34231 ft 519 kts 309°
2026-04-30 13:08 54.36326 -4.37748 34222 ft 517 kts 309°
2026-04-30 13:08 54.41124 -4.46893 34221 ft 515 kts 309°
2026-04-30 13:09 54.45915 -4.56061 34204 ft 515 kts 309°
2026-04-30 13:09 54.50660 -4.65175 34198 ft 515 kts 309°
2026-04-30 13:10 54.55430 -4.74372 34196 ft 515 kts 309°
2026-04-30 13:10 54.60196 -4.83596 34200 ft 515 kts 309°
2026-04-30 13:11 54.64963 -4.92858 34207 ft 516 kts 309°
2026-04-30 13:11 54.69726 -5.02146 34189 ft 519 kts 309°
2026-04-30 13:12 54.74485 -5.11463 34194 ft 520 kts 309°
2026-04-30 13:12 54.79270 -5.20867 34206 ft 521 kts 309°
2026-04-30 13:13 54.86446 -5.35037 34217 ft 521 kts 309°
2026-04-30 13:14 54.93582 -5.49212 34233 ft 522 kts 308°
2026-04-30 13:14 55.00718 -5.63471 34228 ft 520 kts 308°
2026-04-30 13:15 55.07811 -5.77726 34212 ft 518 kts 308°
2026-04-30 13:16 55.12491 -5.87181 34218 ft 517 kts 308°
2026-04-30 13:16 55.17191 -5.96710 34191 ft 517 kts 308°
2026-04-30 13:17 55.24229 -6.11053 34194 ft 518 kts 308°
2026-04-30 13:18 55.31220 -6.25384 34195 ft 518 kts 307°
2026-04-30 13:18 55.38234 -6.39846 34208 ft 519 kts 307°
2026-04-30 13:19 55.42907 -6.49532 34203 ft 519 kts 307°
2026-04-30 13:19 55.47567 -6.59229 34203 ft 519 kts 307°
2026-04-30 13:20 55.52221 -6.68951 34202 ft 518 kts 307°
2026-04-30 13:20 55.56830 -6.78617 34219 ft 517 kts 307°
2026-04-30 13:21 55.61451 -6.88348 34219 ft 516 kts 307°
2026-04-30 13:22 55.68343 -7.02937 34193 ft 514 kts 307°
2026-04-30 13:22 55.75164 -7.17461 34170 ft 512 kts 306°
2026-04-30 13:23 55.81978 -7.32057 34161 ft 512 kts 306°
2026-04-30 13:24 55.90993 -7.51507 34197 ft 510 kts 306°
2026-04-30 13:25 55.99986 -7.71064 34197 ft 509 kts 306°
2026-04-30 13:26 56.11137 -7.95538 34184 ft 509 kts 306°
2026-04-30 13:28 56.22284 -8.20252 34187 ft 510 kts 306°
2026-04-30 13:28 56.28933 -8.35114 34190 ft 510 kts 305°
2026-04-30 13:29 56.37788 -8.55052 34201 ft 509 kts 305°
2026-04-30 13:31 56.48775 -8.80022 34161 ft 510 kts 304°
2026-04-30 13:32 56.59791 -9.05317 34192 ft 513 kts 304°
2026-04-30 13:33 56.68568 -9.25662 34200 ft 513 kts 303°
2026-04-30 13:34 56.75152 -9.41037 34170 ft 514 kts 303°
2026-04-30 13:35 56.83896 -9.61613 34187 ft 515 kts 303°
2026-04-30 13:36 56.92652 -9.82367 34188 ft 516 kts 303°
2026-04-30 13:36 56.99169 -9.97924 34199 ft 514 kts 301°
2026-04-30 13:37 57.05127 -10.14191 34187 ft 512 kts 298°
2026-04-30 13:38 57.11082 -10.30352 34176 ft 511 kts 298°
2026-04-30 13:39 57.18986 -10.52096 34170 ft 510 kts 298°
2026-04-30 13:40 57.24865 -10.68447 34186 ft 509 kts 297°
2026-04-30 13:40 57.28738 -10.79290 34183 ft 509 kts 297°
2026-04-30 13:41 57.32625 -10.90226 34154 ft 509 kts 297°
2026-04-30 13:41 57.36504 -11.01188 34149 ft 509 kts 297°
2026-04-30 13:42 57.40348 -11.12099 34150 ft 509 kts 297°
2026-04-30 13:42 57.46136 -11.28619 34192 ft 508 kts 296°
2026-04-30 13:43 57.49975 -11.39643 34179 ft 507 kts 296°
2026-04-30 13:43 57.53792 -11.50654 34181 ft 506 kts 296°
2026-04-30 13:44 57.57567 -11.61591 34176 ft 504 kts 296°
2026-04-30 13:44 57.61336 -11.72564 34179 ft 502 kts 296°
2026-04-30 13:45 57.66952 -11.89008 34197 ft 499 kts 296°
2026-04-30 13:46 57.70665 -11.99940 34180 ft 497 kts 296°
2026-04-30 13:46 57.74332 -12.10791 34166 ft 496 kts 296°
2026-04-30 13:47 57.78006 -12.21710 34174 ft 495 kts 296°
2026-04-30 13:47 57.81657 -12.32609 34186 ft 493 kts 295°
2026-04-30 13:48 57.85284 -12.43487 34172 ft 491 kts 295°
2026-04-30 13:48 57.88872 -12.54299 34167 ft 490 kts 295°
2026-04-30 13:49 57.92464 -12.65172 34151 ft 489 kts 295°
2026-04-30 13:49 57.96043 -12.76054 34144 ft 488 kts 295°
2026-04-30 13:50 57.99609 -12.86949 34143 ft 488 kts 295°
2026-04-30 13:50 58.04918 -13.03264 34166 ft 489 kts 295°
2026-04-30 13:51 58.08474 -13.14252 34172 ft 490 kts 295°
2026-04-30 13:51 58.12023 -13.25271 34172 ft 491 kts 295°
2026-04-30 13:52 58.15572 -13.36339 34179 ft 492 kts 294°
2026-04-30 13:52 58.19089 -13.47359 34177 ft 492 kts 294°
2026-04-30 13:53 58.22620 -13.58476 34180 ft 492 kts 294°
2026-04-30 13:53 58.25542 -13.67715 34177 ft 492 kts 294°
2026-04-30 13:54 58.29646 -13.80757 34174 ft 492 kts 294°
2026-04-30 13:54 58.33126 -13.91869 34167 ft 492 kts 294°
2026-04-30 13:55 58.36611 -14.03051 34161 ft 491 kts 294°
2026-04-30 13:55 58.40088 -14.14259 34158 ft 491 kts 294°
2026-04-30 13:56 58.43553 -14.25484 34157 ft 491 kts 294°
2026-04-30 13:56 58.47003 -14.36719 34161 ft 491 kts 294°
2026-04-30 13:57 58.50427 -14.47919 34202 ft 491 kts 294°
2026-04-30 13:57 58.53856 -14.59192 34192 ft 489 kts 295°
2026-04-30 13:58 58.58964 -14.76077 34175 ft 487 kts 295°
2026-04-30 13:59 58.62339 -14.87303 34164 ft 485 kts 295°
2026-04-30 13:59 58.65675 -14.98457 34162 ft 485 kts 295°
2026-04-30 14:00 58.69020 -15.09691 34157 ft 484 kts 294°
2026-04-30 14:00 58.74001 -15.26521 34190 ft 482 kts 294°
2026-04-30 14:01 58.77281 -15.37673 34199 ft 481 kts 293°
2026-04-30 14:01 58.80560 -15.48875 34190 ft 479 kts 293°
2026-04-30 14:02 58.83822 -15.60076 34179 ft 478 kts 293°
2026-04-30 14:02 58.87069 -15.71276 34181 ft 477 kts 293°
2026-04-30 14:03 58.90277 -15.82399 34178 ft 476 kts 292°
2026-04-30 14:03 58.93493 -15.93601 34183 ft 477 kts 292°
2026-04-30 14:04 58.96706 -16.04848 34181 ft 477 kts 292°
2026-04-30 14:04 58.99911 -16.16124 34183 ft 477 kts 293°
2026-04-30 14:05 59.03084 -16.27339 34185 ft 477 kts 292°
2026-04-30 14:05 59.06264 -16.38633 34185 ft 477 kts 292°
2026-04-30 14:06 59.11024 -16.55649 34186 ft 477 kts 292°
2026-04-30 14:07 59.15761 -16.72709 34187 ft 478 kts 293°
2026-04-30 14:08 59.20460 -16.89755 34186 ft 477 kts 293°
2026-04-30 14:08 59.24623 -17.04970 34196 ft 477 kts 294°
2026-04-30 14:09 59.27741 -17.16428 34192 ft 477 kts 294°
2026-04-30 14:10 59.32902 -17.35532 34197 ft 478 kts 294°
2026-04-30 14:10 59.35475 -17.45113 34189 ft 477 kts 294°
2026-04-30 14:11 59.38556 -17.56639 34190 ft 477 kts 294°
2026-04-30 14:11 59.41625 -17.68179 34192 ft 477 kts 294°
2026-04-30 14:12 59.44677 -17.79722 34203 ft 476 kts 295°
2026-04-30 14:12 59.47719 -17.91275 34195 ft 475 kts 295°
2026-04-30 14:13 59.50722 -18.02745 34209 ft 474 kts 294°
2026-04-30 14:13 59.53730 -18.14294 34187 ft 473 kts 295°
2026-04-30 14:14 59.56723 -18.25846 34182 ft 472 kts 294°
2026-04-30 14:14 59.59700 -18.37393 34175 ft 472 kts 294°
2026-04-30 14:15 59.62643 -18.48869 34168 ft 471 kts 294°
2026-04-30 14:15 59.65592 -18.60429 34172 ft 471 kts 295°
2026-04-30 14:16 59.68524 -18.71981 34190 ft 469 kts 295°
2026-04-30 14:16 59.71438 -18.83520 34216 ft 467 kts 295°
2026-04-30 14:17 59.74323 -18.95003 34198 ft 465 kts 295°
2026-04-30 14:17 59.77171 -19.06400 34181 ft 463 kts 295°
2026-04-30 14:18 59.80017 -19.17850 34172 ft 462 kts 295°
2026-04-30 14:18 59.84251 -19.34991 34152 ft 460 kts 295°
2026-04-30 14:19 59.88426 -19.52031 34196 ft 456 kts 296°
2026-04-30 14:20 59.91193 -19.63365 34157 ft 451 kts 296°
2026-04-30 14:20 59.95263 -19.80117 34162 ft 448 kts 296°
2026-04-30 14:21 59.97966 -19.91315 34154 ft 448 kts 296°
2026-04-30 14:21 60.01446 -20.01499 34154 ft 450 kts 312°
2026-04-30 14:22 60.03724 -20.05801 34154 ft 452 kts 318°
2026-04-30 14:22 60.11076 -20.17634 34148 ft 452 kts 319°
2026-04-30 14:23 60.20878 -20.33350 34145 ft 452 kts 319°
2026-04-30 14:24 60.28250 -20.45222 34145 ft 452 kts 319°
2026-04-30 14:25 60.38010 -20.61073 34139 ft 451 kts 318°
2026-04-30 14:26 60.45295 -20.73000 34143 ft 447 kts 318°
2026-04-30 14:27 60.52527 -20.84910 34116 ft 445 kts 318°
2026-04-30 14:27 60.57321 -20.92844 34105 ft 444 kts 318°
2026-04-30 14:28 60.64451 -21.04701 34107 ft 443 kts 317°
2026-04-30 14:28 60.69207 -21.12650 34105 ft 441 kts 317°
2026-04-30 14:29 60.78674 -21.28566 34072 ft 440 kts 317°
2026-04-30 14:31 60.90442 -21.48526 34085 ft 440 kts 316°
2026-04-30 14:31 60.97508 -21.60607 34071 ft 441 kts 316°
2026-04-30 14:32 61.04542 -21.72706 34068 ft 441 kts 316°
2026-04-30 14:33 61.09254 -21.80848 34081 ft 442 kts 316°
2026-04-30 14:33 61.16305 -21.93098 34071 ft 441 kts 316°
2026-04-30 14:34 61.20991 -22.01279 34066 ft 440 kts 316°
2026-04-30 14:34 61.25669 -22.09481 34054 ft 440 kts 316°
2026-04-30 14:35 61.32635 -22.21751 34053 ft 440 kts 315°
2026-04-30 14:36 61.37300 -22.30015 34046 ft 439 kts 315°
2026-04-30 14:36 61.41945 -22.38273 34031 ft 439 kts 315°
2026-04-30 14:37 61.46551 -22.46496 34027 ft 438 kts 315°
2026-04-30 14:37 61.51183 -22.54799 34017 ft 438 kts 315°
2026-04-30 14:38 61.55811 -22.63126 34074 ft 438 kts 315°
2026-04-30 14:38 61.60440 -22.71492 34015 ft 439 kts 314°
2026-04-30 14:39 61.65068 -22.79889 34004 ft 440 kts 314°
2026-04-30 14:39 61.69663 -22.88261 34009 ft 440 kts 314°
2026-04-30 14:40 61.76597 -23.00960 34001 ft 440 kts 314°
2026-04-30 14:40 61.81212 -23.09456 34007 ft 442 kts 314°
2026-04-30 14:41 61.85818 -23.17970 33994 ft 442 kts 314°
2026-04-30 14:41 61.90449 -23.26565 33979 ft 443 kts 314°
2026-04-30 14:42 61.95081 -23.35199 33981 ft 443 kts 314°
2026-04-30 14:42 61.99710 -23.43863 33973 ft 443 kts 314°
2026-04-30 14:43 62.04337 -23.52560 34039 ft 444 kts 314°
2026-04-30 14:43 62.08942 -23.61255 33967 ft 445 kts 314°
2026-04-30 14:44 62.13577 -23.70040 33958 ft 446 kts 314°
2026-04-30 14:44 62.18211 -23.78863 33961 ft 446 kts 313°
2026-04-30 14:45 62.22842 -23.87715 33953 ft 446 kts 313°
2026-04-30 14:45 62.27434 -23.96531 33999 ft 444 kts 313°
2026-04-30 14:46 62.32042 -24.05418 33956 ft 445 kts 313°
2026-04-30 14:46 62.36637 -24.14318 33946 ft 444 kts 313°
2026-04-30 14:47 62.41215 -24.23222 33913 ft 443 kts 313°
2026-04-30 14:47 62.45753 -24.32085 33909 ft 442 kts 313°
2026-04-30 14:48 62.50306 -24.41019 33903 ft 442 kts 313°
2026-04-30 14:48 62.54854 -24.49979 33903 ft 442 kts 313°
2026-04-30 14:49 62.59397 -24.58970 33916 ft 443 kts 313°
2026-04-30 14:49 62.63942 -24.68002 33917 ft 443 kts 313°
2026-04-30 14:50 62.70726 -24.81558 33922 ft 444 kts 313°
2026-04-30 14:51 62.77534 -24.95252 33921 ft 445 kts 313°
2026-04-30 14:52 62.84355 -25.09062 33906 ft 446 kts 313°
2026-04-30 14:52 62.91137 -25.22884 33896 ft 446 kts 312°
2026-04-30 14:53 62.97944 -25.36848 33894 ft 446 kts 312°
2026-04-30 14:54 63.07020 -25.55616 33881 ft 448 kts 312°
2026-04-30 14:55 63.13786 -25.69715 33882 ft 448 kts 312°
2026-04-30 14:56 63.22830 -25.88712 33894 ft 447 kts 312°
2026-04-30 14:57 63.29550 -26.02940 33878 ft 447 kts 312°
2026-04-30 14:58 63.38516 -26.22074 33846 ft 446 kts 311°
2026-04-30 14:58 63.45177 -26.36402 33845 ft 445 kts 311°
2026-04-30 15:00 63.56302 -26.60553 33842 ft 446 kts 311°
2026-04-30 15:01 63.65179 -26.80022 33839 ft 446 kts 311°
2026-04-30 15:01 63.71796 -26.94654 33837 ft 446 kts 311°
2026-04-30 15:02 63.76226 -27.04507 33844 ft 447 kts 311°
2026-04-30 15:03 63.87273 -27.29273 33838 ft 447 kts 310°
2026-04-30 15:04 63.98238 -27.54148 33813 ft 448 kts 310°
2026-04-30 15:06 64.09210 -27.79332 33809 ft 447 kts 310°
2026-04-30 15:07 64.17901 -27.99495 33814 ft 445 kts 310°
2026-04-30 15:08 64.26585 -28.19834 33807 ft 446 kts 309°
2026-04-30 15:09 64.37350 -28.45319 33797 ft 445 kts 309°
2026-04-30 15:10 64.38775 -28.48716 33797 ft 445 kts 309°